Location: Bergnerzell
(49.1816°N, 10.2565°E)
Time: 13:38:11
(UTC+00:00)

IDEFIX/ARIANE 42P - Pass Details

Date: 15 August 2024
Orbit: 782 x 799 km, 98.5° (Epoch: 15 September)

Event Time Altitude Azimuth Distance (km) Brightness Sun altitude
Rises 01:52:27 0° 9° (N) 3,285 6.8 -18.8°
Reaches altitude 10° 01:54:51 10° 4° (N) 2,354 5.8 -18.6°
Maximum altitude 01:59:46 45° 293° (WNW) 1,067 3.1 -18.1°
Enters shadow 02:01:52 30° 241° (WSW) 1,393 3.3 -17.9°
